Valley City, ND

8:08 AM CST on December 07, 2019 (GMT -0600)
Valley City

Weather History for KBAC - October, 2019

Change the Weather History Date:

Monday, October 28, 2019

  Actual Average (KJMS) Record (KJMS)
Temperature  
Mean Temperature 30 °F -  
Max Temperature 37 °F 50 °F 79 °F (1937)
Min Temperature 23 °F 27 °F -8 °F (1919)
Degree Days  
Heating Degree Days 35    
Moisture  
Dew Point 15 °F    
Average Humidity 61    
Maximum Humidity 86    
Minimum Humidity 45    
Precipitation  
Precipitation 0.00 in - - ()
Sea Level Pressure  
Sea Level Pressure 30.02 in    
Wind  
Wind Speed 12 mph (West)    
Max Wind Speed 18 mph    
Max Gust Speed 25 mph    
Visibility 10 miles    
Events Snow    
Averages and records for this station are not official NWS values.
T = Trace of Precipitation, MM = Missing Value Source: NWS Daily Summary

Daily Weather History Graph

Daily Weather History Graph

Search for Another Location

Airport or City:

Astronomy

Oct. 28, 2019 Rise Set
Actual Time 8:08 AM CDT 6:22 PM CDT
Civil Twilight 7:37 AM CDT 6:53 PM CDT
Nautical Twilight 7:01 AM CDT 7:29 PM CDT
Astronomical Twilight 6:26 AM CDT 8:04 PM CDT
Moon 8:30 AM CDT (10/28) 7:07 PM CDT (10/28)
Length of Visible Light 11h 16m
Length of Day
10h 14m
New Moon, 0% of the Moon is Illuminated
Oct 28
New Moon
Nov 4
First Quarter
Nov 12
Full
Nov 19
Last Quarter
Nov 26
New

Hourly Weather History & Observations

Time (CDT) Temp. Windchill Dew Point Humidity Pressure Visibility Wind Dir Wind Speed Gust Speed Precip Events Conditions
12:15 AM 26.6 °F 15.7 °F 15.8 °F 64% 30.09 in 10.0 mi WNW 12.7 mph - N/A   Overcast
12:35 AM 24.8 °F 12.9 °F 15.8 °F 69% 30.08 in 10.0 mi WNW 13.8 mph - N/A   Overcast
12:55 AM 24.8 °F 11.9 °F 14.0 °F 64% 30.08 in 10.0 mi WNW 16.1 mph - N/A   Overcast
1:15 AM 24.8 °F 15.3 °F 14.0 °F 64% 30.08 in 10.0 mi WNW 9.2 mph 16.1 mph N/A   Overcast
1:35 AM 24.8 °F 14.6 °F 14.0 °F 64% 30.08 in 10.0 mi NW 10.4 mph - N/A   Overcast
1:55 AM 24.8 °F 14.6 °F 14.0 °F 64% 30.08 in 10.0 mi WNW 10.4 mph 21.9 mph N/A   Overcast
2:15 AM 24.8 °F 13.4 °F 12.2 °F 59% 30.07 in 10.0 mi WNW 12.7 mph 20.7 mph N/A   Overcast
2:35 AM 24.8 °F 12.9 °F 12.2 °F 59% 30.07 in 10.0 mi WNW 13.8 mph 19.6 mph N/A   Overcast
2:55 AM 24.8 °F 12.4 °F 12.2 °F 59% 30.07 in 10.0 mi WNW 15.0 mph - N/A   Overcast
3:15 AM 24.8 °F 14.0 °F 12.2 °F 59% 30.07 in 10.0 mi WNW 11.5 mph - N/A   Overcast
3:35 AM 24.8 °F 14.0 °F 12.2 °F 59% 30.06 in 10.0 mi West 11.5 mph - N/A   Overcast
3:55 AM 24.8 °F 15.3 °F 14.0 °F 64% 30.06 in 10.0 mi West 9.2 mph - N/A   Overcast
4:15 AM 24.8 °F 14.6 °F 14.0 °F 64% 30.05 in 10.0 mi West 10.4 mph - N/A   Overcast
4:35 AM 24.8 °F 15.3 °F 14.0 °F 64% 30.04 in 10.0 mi West 9.2 mph - N/A   Overcast
4:55 AM 24.8 °F 16.1 °F 14.0 °F 64% 30.03 in 10.0 mi West 8.1 mph 15.0 mph N/A   Overcast
5:15 AM 24.8 °F 15.3 °F 14.0 °F 64% 30.03 in 10.0 mi West 9.2 mph - N/A   Overcast
5:35 AM 24.8 °F 14.6 °F 15.8 °F 69% 30.02 in 10.0 mi West 10.4 mph - N/A   Overcast
5:55 AM 24.8 °F 14.6 °F 15.8 °F 69% 30.01 in 10.0 mi West 10.4 mph - N/A   Overcast
6:15 AM 24.8 °F 16.9 °F 15.8 °F 69% 30.01 in 10.0 mi West 6.9 mph - N/A   Overcast
6:35 AM 24.8 °F 16.9 °F 17.6 °F 74% 30.00 in 10.0 mi West 6.9 mph - N/A   Overcast
6:55 AM 24.8 °F 15.3 °F 15.8 °F 69% 30.00 in 10.0 mi WSW 9.2 mph - N/A   Overcast
7:15 AM 24.8 °F 12.9 °F 12.2 °F 59% 30.00 in 10.0 mi WSW 13.8 mph - N/A   Overcast
7:35 AM 24.8 °F 13.4 °F 12.2 °F 59% 30.00 in 10.0 mi WSW 12.7 mph - N/A   Overcast
7:55 AM 24.8 °F 14.0 °F 12.2 °F 59% 30.00 in 10.0 mi SW 11.5 mph - N/A   Overcast
8:15 AM 23.0 °F 11.1 °F 12.2 °F 63% 30.00 in 10.0 mi SW 12.7 mph - N/A   Overcast
8:35 AM 23.0 °F 13.1 °F 14.0 °F 68% 30.00 in 10.0 mi SW 9.2 mph 17.3 mph N/A   Overcast
8:55 AM 23.0 °F 10.1 °F 12.2 °F 63% 30.00 in 10.0 mi WSW 15.0 mph - N/A   Overcast
9:15 AM 23.0 °F 11.7 °F 12.2 °F 63% 30.01 in 10.0 mi WSW 11.5 mph - N/A   Scattered Clouds
9:35 AM 23.0 °F 11.1 °F 12.2 °F 63% 30.01 in 10.0 mi SW 12.7 mph - N/A   Clear
9:55 AM 23.0 °F 12.4 °F 12.2 °F 63% 30.01 in 10.0 mi WSW 10.4 mph - N/A   Clear
10:15 AM 24.8 °F 13.4 °F 10.4 °F 54% 30.01 in 10.0 mi SW 12.7 mph - N/A   Clear
10:35 AM 24.8 °F 14.0 °F 10.4 °F 54% 30.01 in 10.0 mi SW 11.5 mph - N/A   Clear
10:55 AM 24.8 °F 13.4 °F 12.2 °F 59% 30.00 in 10.0 mi SW 12.7 mph - N/A   Clear
12:55 PM 30.2 °F 20.2 °F 14.0 °F 51% 29.97 in 10.0 mi SSW 12.7 mph - N/A   Clear
1:15 PM 32.0 °F 22.5 °F 14.0 °F 48% 29.97 in 10.0 mi SSW 12.7 mph - N/A   Clear
1:35 PM 32.0 °F 22.1 °F 15.8 °F 51% 29.97 in 10.0 mi SSW 13.8 mph - N/A   Clear
1:55 PM 32.0 °F 21.2 °F 15.8 °F 51% 29.97 in 10.0 mi SSW 16.1 mph - N/A   Clear
2:15 PM 32.0 °F 22.1 °F 15.8 °F 51% 29.96 in 10.0 mi SW 13.8 mph 20.7 mph N/A   Clear
2:35 PM 33.8 °F 23.9 °F 17.6 °F 52% 29.96 in 10.0 mi SSW 15.0 mph 23.0 mph N/A   Clear
2:55 PM 35.6 °F 26.2 °F 17.6 °F 48% 29.96 in 10.0 mi SSW 15.0 mph 23.0 mph N/A   Partly Cloudy
3:15 PM 35.6 °F 26.2 °F 17.6 °F 48% 29.95 in 10.0 mi South 15.0 mph - N/A   Clear
3:35 PM 35.6 °F 25.5 °F 17.6 °F 48% 29.95 in 10.0 mi SSW 17.3 mph - N/A   Clear
3:55 PM 37.4 °F 28.9 °F 17.6 °F 45% 29.95 in 10.0 mi WSW 13.8 mph 19.6 mph N/A   Clear
4:35 PM 37.4 °F 28.9 °F 19.4 °F 48% 29.96 in 10.0 mi WSW 13.8 mph - N/A   Scattered Clouds
4:55 PM 35.6 °F 25.2 °F 23.0 °F 60% 29.97 in 10.0 mi WNW 18.4 mph 25.3 mph N/A   Overcast
5:35 PM 33.8 °F 26.4 °F 23.0 °F 65% 29.98 in 10.0 mi West 9.2 mph 15.0 mph N/A   Overcast
5:55 PM 33.8 °F 26.4 °F 23.0 °F 65% 29.97 in 10.0 mi West 9.2 mph - N/A   Mostly Cloudy
6:15 PM 32.0 °F 25.6 °F 21.2 °F 64% 29.98 in 10.0 mi West 6.9 mph - N/A   Partly Cloudy
6:35 PM 30.2 °F 24.3 °F 21.2 °F 69% 29.99 in 10.0 mi West 5.8 mph - N/A   Clear
6:55 PM 28.4 °F 22.2 °F 21.2 °F 74% 29.99 in 10.0 mi West 5.8 mph - N/A   Clear
7:15 PM 26.6 °F 18.2 °F 23.0 °F 86% 30.00 in 10.0 mi West 8.1 mph - N/A   Partly Cloudy
7:35 PM 28.4 °F 19.7 °F 23.0 °F 80% 30.00 in 10.0 mi West 9.2 mph - N/A   Mostly Cloudy
7:55 PM 32.0 °F 22.1 °F 23.0 °F 69% 30.01 in 10.0 mi WNW 13.8 mph 19.6 mph N/A   Overcast
8:15 PM 30.2 °F 18.1 °F 15.8 °F 55% 30.04 in 10.0 mi NW 18.4 mph 25.3 mph N/A Snow Light Snow
8:35 PM 28.4 °F 17.0 °F 15.8 °F 59% 30.04 in 10.0 mi NW 15.0 mph - N/A Snow Light Snow
8:55 PM 26.6 °F 15.7 °F 15.8 °F 64% 30.06 in 10.0 mi NW 12.7 mph - N/A   Partly Cloudy
9:15 PM 26.6 °F 15.7 °F 14.0 °F 59% 30.07 in 10.0 mi NW 12.7 mph - N/A   Scattered Clouds
9:35 PM 26.6 °F 15.7 °F 14.0 °F 59% 30.07 in 10.0 mi NW 12.7 mph - N/A   Overcast
9:55 PM 26.6 °F 16.2 °F 14.0 °F 59% 30.08 in 10.0 mi NW 11.5 mph - N/A   Overcast
10:15 PM 26.6 °F 14.7 °F 14.0 °F 59% 30.08 in 10.0 mi NW 15.0 mph - N/A   Overcast
10:55 PM 24.8 °F 14.6 °F 14.0 °F 64% 30.10 in 10.0 mi NW 10.4 mph - N/A   Partly Cloudy
11:15 PM 24.8 °F 14.0 °F 14.0 °F 64% 30.10 in 10.0 mi NW 11.5 mph - N/A   Clear
11:35 PM 24.8 °F 13.4 °F 12.2 °F 59% 30.11 in 10.0 mi WNW 12.7 mph - N/A   Clear
11:55 PM 24.8 °F 14.6 °F 12.2 °F 59% 30.12 in 10.0 mi NW 10.4 mph 17.3 mph N/A   Clear